This is the latest recevied weather packets stored in our database for station/object OE6PLD-13. If no packets are shown the sender has not sent any weather packets the latest 1 day(s).
| Time | Temp. | Humidity | Pressure | Rain* | Wind** | Luminosity | Snow |
|---|---|---|---|---|---|---|---|
| 1777969573 | 22.22° C | 43% | 1009.1 hPa | 0.76 mm | 2.24 m/s, 224° | 660 W/m² | - |
| 1777969389 | 21.67° C | 43% | 1009.1 hPa | 0.76 mm | 0.45 m/s, 222° | 661 W/m² | - |
| 1777969206 | 21.67° C | 43% | 1009.1 hPa | 0.76 mm | 0.89 m/s, 223° | 675 W/m² | - |
| 1777969023 | 21.67° C | 43% | 1009.1 hPa | 0.76 mm | 3.13 m/s, 222° | 709 W/m² | - |
| 1777968839 | 21.67° C | 43% | 1009.1 hPa | 0.76 mm | 0.89 m/s, 216° | 726 W/m² | - |
| 1777968656 | 21.11° C | 44% | 1009.1 hPa | 0.76 mm | 0.45 m/s, 216° | 733 W/m² | - |
| 1777968473 | 21.11° C | 43% | 1009 hPa | 0.76 mm | 2.24 m/s, 219° | 715 W/m² | - |
| 1777968289 | 21.11° C | 45% | 1009 hPa | 0.76 mm | 1.34 m/s, 217° | 688 W/m² | - |
| 1777968106 | 21.11° C | 44% | 1009.4 hPa | 0.76 mm | 1.34 m/s, 216° | 650 W/m² | - |
| 1777967923 | 20.56° C | 44% | 1009.5 hPa | 0.76 mm | 0.89 m/s, 212° | 591 W/m² | - |
| 1777967739 | 21.11° C | 45% | 1009.4 hPa | 0.76 mm | 2.68 m/s, 210° | 580 W/m² | - |
| 1777967556 | 21.11° C | 45% | 1009.3 hPa | 0.76 mm | 2.68 m/s, 205° | 587 W/m² | - |
| 1777967373 | 21.11° C | 44% | 1009.3 hPa | 0.76 mm | 1.79 m/s, 203° | 590 W/m² | - |
| 1777967189 | 20.56° C | 44% | 1009.2 hPa | 0.76 mm | 1.34 m/s, 198° | 610 W/m² | - |
| 1777967006 | 20.56° C | 44% | 1009.2 hPa | 0.76 mm | 1.34 m/s, 193° | 630 W/m² | - |
| 1777966823 | 20.56° C | 44% | 1009.4 hPa | 0.76 mm | 2.24 m/s, 155° | 665 W/m² | - |
| 1777966639 | 20.56° C | 46% | 1009.4 hPa | 0.76 mm | 0 m/s | 684 W/m² | - |
| 1777966456 | 20.56° C | 45% | 1009.6 hPa | 0.76 mm | 2.24 m/s, 132° | 697 W/m² | - |
| 1777966272 | 20.56° C | 47% | 1009.6 hPa | 0.76 mm | 0 m/s | 676 W/m² | - |
| 1777966089 | 20.56° C | 47% | 1009.3 hPa | 0.76 mm | 0.89 m/s, 105° | 618 W/m² | - |
| 1777965906 | 20.56° C | 47% | 1009.5 hPa | 0.76 mm | 0.89 m/s, 95° | 577 W/m² | - |
| 1777965722 | 20° C | 48% | 1009.5 hPa | 0.76 mm | 0 m/s | 514 W/m² | - |
| 1777965539 | 20° C | 49% | 1009.5 hPa | 0.76 mm | 0 m/s | 435 W/m² | - |
| 1777965356 | 20° C | 49% | 1009.4 hPa | 0.76 mm | 0 m/s | 403 W/m² | - |
| 1777965172 | 20° C | 51% | 1009.5 hPa | 0.76 mm | 0 m/s | 396 W/m² | - |
* Rain latest hour (hover to see other rain measurements)
** Current wind speed in m/s (hover to see current wind gust speed)